Current Weather Conditions: station LGAV

sailwx.info

See reports from other nearby stations

no recent reports received from weather station ID LGAV

Tides Pressure Air temp Water temp Dewpoint Dewpoint depression Visibility Wind speed Wind direction Waves Ship positions
date/time (UTC)wind fromknots sea level pressurealtimeterstation pressurevisibilityair tempwater tempwave heightnotes
2014-Aug-21 11:20 080 7 33.0
2014-Aug-21 10:50 090 9 32.0
2014-Aug-21 10:20 080 8 33.0
2014-Aug-21 09:50 33.0
2014-Aug-21 09:20 32.0
2014-Aug-21 08:50 080 4 31.0
2014-Aug-21 08:20 060 4 30.0
2014-Aug-21 07:50 30.0
2014-Aug-21 07:20 29.0
2014-Aug-21 06:50 28.0
2014-Aug-21 06:20 27.0
2014-Aug-21 05:50 26.0
2014-Aug-21 05:20 23.0
2014-Aug-21 04:50 22.0
2014-Aug-21 04:20 280 2 21.0
2014-Aug-21 03:50 270 2 20.0
2014-Aug-21 03:20 18.0
2014-Aug-21 02:50 19.0
2014-Aug-21 02:20 280 4 19.0
2014-Aug-21 01:50 250 2 20.0
2014-Aug-21 01:20 270 3 19.0
2014-Aug-21 00:50 300 3 21.0
2014-Aug-21 00:20 360 3 21.0
2014-Aug-20 23:50 21.0
2014-Aug-20 23:20 210 2 23.0
2014-Aug-20 22:50 210 2 24.0
2014-Aug-20 22:20 210 3 24.0
2014-Aug-20 21:50 210 3 24.0
2014-Aug-20 21:20 230 1 23.0
2014-Aug-20 20:50 24.0
2014-Aug-20 20:20 24.0
2014-Aug-20 19:50 190 3 24.0
2014-Aug-20 19:20 200 4 25.0
2014-Aug-20 18:50 200 5 25.0
2014-Aug-20 18:20 210 6 25.0
2014-Aug-20 17:50 210 7 26.0
2014-Aug-20 17:20 200 8 26.0
2014-Aug-20 16:50 210 9 27.0
2014-Aug-20 16:20 110 5 28.0
2014-Aug-20 15:50 110 7 28.0
2014-Aug-20 15:20 090 6 30.0
2014-Aug-20 14:50 090 4 30.0
2014-Aug-20 14:20 110 5 31.0
2014-Aug-20 13:50 100 6 31.0
2014-Aug-20 13:20 090 7 31.0
2014-Aug-20 12:50 080 7 31.0
2014-Aug-20 12:20 080 8 30.0
2014-Aug-20 11:50 070 13 29.0
2014-Aug-20 11:20 050 12 29.0
2014-Aug-20 10:50 060 14 29.0
2014-Aug-20 10:20 040 15 29.0
2014-Aug-20 09:50 040 14 29.0
2014-Aug-20 09:20 050 13 29.0
2014-Aug-20 08:50 040 12 28.0
2014-Aug-20 08:20 040 11 28.0
2014-Aug-20 07:50 030 13 28.0
2014-Aug-20 07:20 030 12 27.0
2014-Aug-20 06:50 020 10 27.0
2014-Aug-20 06:20 020 12 26.0
2014-Aug-20 05:50 020 8 26.0
2014-Aug-20 05:20 360 5 25.0
2014-Aug-20 04:50 340 4 24.0
2014-Aug-20 04:20 280 3 22.0
2014-Aug-20 03:50 300 3 21.0
2014-Aug-20 03:20 020 6 22.0
2014-Aug-20 02:50 030 7 21.0
2014-Aug-20 02:20 21.0
2014-Aug-20 01:50 030 5 22.0
2014-Aug-20 01:20 350 3 23.0
2014-Aug-20 00:50 340 5 23.0
2014-Aug-20 00:20 22.0
2014-Aug-19 23:50 350 2 23.0
2014-Aug-19 23:20 320 5 23.0
2014-Aug-19 22:50 320 5 23.0
2014-Aug-19 22:20 330 5 24.0
2014-Aug-19 21:50 320 5 24.0
2014-Aug-19 21:20 330 5 23.0
2014-Aug-19 20:50 360 5 24.0
2014-Aug-19 20:20 020 5 23.0
2014-Aug-19 19:50 010 9 22.0
2014-Aug-19 19:20 020 7 24.0
2014-Aug-19 18:50 020 6 24.0
2014-Aug-19 18:20 010 7 24.0
2014-Aug-19 17:50 020 10 25.0
2014-Aug-19 17:20 030 12 25.0
2014-Aug-19 16:50 030 16 26.0
2014-Aug-19 16:20 040 19 26.0
2014-Aug-19 15:50 040 18 27.0
2014-Aug-19 15:20 040 20 28.0
2014-Aug-19 14:50 040 22 28.0
2014-Aug-19 14:20 040 20 28.0
2014-Aug-19 13:50 040 20 28.0
2014-Aug-19 13:20 050 18 5.429.0
2014-Aug-19 12:50 050 20 5.429.0
2014-Aug-19 12:20 040 20 5.429.0